• In Uzbekistan
  • List of Countries
  • For 7 days
  • Water Temperature
  • Satellite Maps
  • Weather Map
  • Weather Widgets
  • user-avatar
    Login

    Hourly Weather Mingachevir

    Today, 25 May, Thursday

    Time Temperature Precipitation Wind Pressure Humidity
    00:00 +17°C° 0 mm 3 mps 752 mmHg 61%
    01:00 +17°C° 0 mm 3 mps 752 mmHg 62%
    02:00 +16°C° 0 mm 3 mps 752 mmHg 62%
    03:00 +16°C° 0 mm 3 mps 752 mmHg 62%
    04:00 +17°C° 0 mm 3 mps 752 mmHg 60%
    05:00 +17°C° 0 mm 3 mps 753 mmHg 58%
    06:00 +18°C° 0 mm 3 mps 753 mmHg 57%
    07:00 +20°C° 0 mm 3 mps 753 mmHg 50%
    08:00 +22°C° 0 mm 4 mps 753 mmHg 44%
    09:00 +23°C° 0 mm 4 mps 753 mmHg 38%
    10:00 +25°C° 0 mm 4 mps 753 mmHg 36%
    11:00 +26°C° 0 mm 3 mps 752 mmHg 33%
    12:00 +27°C° 0 mm 3 mps 752 mmHg 31%
    13:00 +28°C° 0 mm 3 mps 752 mmHg 31%
    14:00 +28°C° 0 mm 2 mps 752 mmHg 30%
    15:00 +29°C° 0 mm 2 mps 751 mmHg 30%
    16:00 +28°C° 0 mm 2 mps 752 mmHg 33%
    17:00 +27°C° 0 mm 2 mps 752 mmHg 36%
    18:00 +27°C° 0 mm 2 mps 752 mmHg 39%
    19:00 +24°C° 0 mm 2 mps 753 mmHg 44%
    20:00 +21°C° 0 mm 2 mps 753 mmHg 49%
    21:00 +19°C° 0 mm 3 mps 754 mmHg 54%
    22:00 +18°C° 0 mm 2 mps 754 mmHg 61%
    23:00 +17°C° 0 mm 2 mps 754 mmHg 68%

    Tomorrow, 26 May, Friday

    Time Temperature Precipitation Wind Pressure Humidity
    00:00 +16°C° 0 mm 2 mps 754 mmHg 75%
    01:00 +16°C° 0 mm 1 mps 754 mmHg 78%
    02:00 +15°C° 0 mm 1 mps 754 mmHg 81%
    03:00 +14°C° 0 mm 0 mps 754 mmHg 84%
    04:00 +15°C° 0 mm 0 mps 754 mmHg 80%
    05:00 +16°C° 0 mm 0 mps 754 mmHg 77%
    06:00 +19°C° 0 mm 1 mps 754 mmHg 73%
    07:00 +21°C° 0 mm 1 mps 754 mmHg 67%
    08:00 +22°C° 0 mm 1 mps 753 mmHg 60%
    09:00 +24°C° 0 mm 1 mps 753 mmHg 54%
    10:00 +25°C° 0 mm 1 mps 753 mmHg 50%
    11:00 +26°C° 0 mm 1 mps 752 mmHg 46%
    12:00 +28°C° 0 mm 1 mps 751 mmHg 42%
    13:00 +28°C° 0 mm 1 mps 751 mmHg 41%
    14:00 +28°C° 0 mm 1 mps 751 mmHg 40%
    15:00 +29°C° 0 mm 1 mps 750 mmHg 40%
    16:00 +28°C° 0 mm 1 mps 750 mmHg 43%
    17:00 +28°C° 0 mm 1 mps 750 mmHg 46%
    18:00 +27°C° 0 mm 1 mps 750 mmHg 48%
    19:00 +25°C° 0 mm 1 mps 751 mmHg 52%
    20:00 +24°C° 0 mm 2 mps 751 mmHg 56%
    21:00 +21°C° 0 mm 2 mps 752 mmHg 59%
    22:00 +21°C° 0 mm 2 mps 752 mmHg 62%
    23:00 +20°C° 0 mm 2 mps 752 mmHg 65%

    Day after tomorrow, 27 May, Saturday

    Time Temperature Precipitation Wind Pressure Humidity
    00:00 +20°C° 0 mm 2 mps 752 mmHg 68%
    01:00 +19°C° 0 mm 2 mps 751 mmHg 73%
    02:00 +18°C° 0 mm 1 mps 751 mmHg 77%
    03:00 +15°C° 0 mm 0 mps 751 mmHg 81%
    04:00 +17°C° 0 mm 0 mps 751 mmHg 78%
    05:00 +18°C° 0 mm 0 mps 751 mmHg 75%
    06:00 +19°C° 0 mm 0 mps 751 mmHg 72%
    07:00 +22°C° 0 mm 1 mps 751 mmHg 66%
    08:00 +24°C° 0 mm 1 mps 751 mmHg 61%
    09:00 +25°C° 0 mm 1 mps 751 mmHg 55%
    10:00 +26°C° 0.1 mm 1 mps 750 mmHg 51%
    11:00 +27°C° 0.1 mm 1 mps 749 mmHg 47%
    12:00 +29°C° 0.1 mm 1 mps 749 mmHg 43%
    13:00 +29°C° 0.3 mm 1 mps 748 mmHg 43%
    14:00 +29°C° 0.3 mm 1 mps 747 mmHg 42%
    15:00 +30°C° 0.3 mm 2 mps 747 mmHg 41%
    16:00 +29°C° 0.7 mm 2 mps 747 mmHg 46%
    17:00 +28°C° 0.7 mm 2 mps 746 mmHg 50%
    18:00 +26°C° 0.7 mm 3 mps 746 mmHg 55%
    19:00 +25°C° 0.8 mm 2 mps 747 mmHg 62%
    20:00 +23°C° 0.8 mm 2 mps 747 mmHg 70%
    21:00 +21°C° 0.8 mm 1 mps 748 mmHg 78%
    22:00 +20°C° 1.2 mm 1 mps 748 mmHg 79%
    23:00 +20°C° 1.2 mm 1 mps 748 mmHg 81%

    28 May, Sunday

    Time Temperature Precipitation Wind Pressure Humidity
    00:00 +19°C° 1.2 mm 1 mps 748 mmHg 82%
    01:00 +18°C° 0.4 mm 2 mps 748 mmHg 82%
    02:00 +18°C° 0.4 mm 2 mps 748 mmHg 81%
    03:00 +17°C° 0.4 mm 3 mps 748 mmHg 81%
    04:00 +18°C° 0 mm 3 mps 749 mmHg 77%
    05:00 +19°C° 0 mm 4 mps 749 mmHg 73%
    06:00 +19°C° 0 mm 4 mps 749 mmHg 69%
    07:00 +21°C° 0 mm 5 mps 749 mmHg 61%
    08:00 +25°C° 0 mm 5 mps 749 mmHg 54%
    09:00 +27°C° 0 mm 6 mps 749 mmHg 47%
    10:00 +28°C° 0 mm 5 mps 749 mmHg 43%
    11:00 +29°C° 0 mm 5 mps 749 mmHg 39%
    12:00 +30°C° 0 mm 5 mps 749 mmHg 36%
    13:00 +32°C° 0 mm 5 mps 748 mmHg 35%
    14:00 +32°C° 0 mm 4 mps 748 mmHg 33%
    15:00 +33°C° 0 mm 4 mps 748 mmHg 32%
    16:00 +31°C° 0.1 mm 3 mps 748 mmHg 35%
    17:00 +30°C° 0.1 mm 2 mps 748 mmHg 38%
    18:00 +29°C° 0.1 mm 2 mps 749 mmHg 42%
    19:00 +27°C° 0.2 mm 2 mps 749 mmHg 47%
    20:00 +24°C° 0.2 mm 2 mps 750 mmHg 52%
    21:00 +21°C° 0.2 mm 2 mps 750 mmHg 57%
    22:00 +20°C° 0 mm 2 mps 751 mmHg 63%
    23:00 +20°C° 0 mm 1 mps 751 mmHg 69%

    29 May, Monday

    Time Temperature Precipitation Wind Pressure Humidity
    00:00 +19°C° 0 mm 1 mps 751 mmHg 75%
    01:00 +19°C° 0 mm 1 mps 751 mmHg 74%
    02:00 +19°C° 0 mm 1 mps 752 mmHg 74%
    03:00 +19°C° 0 mm 1 mps 752 mmHg 74%
    04:00 +20°C° 0 mm 1 mps 752 mmHg 71%
    05:00 +21°C° 0 mm 1 mps 753 mmHg 67%
    06:00 +22°C° 0 mm 1 mps 753 mmHg 64%
    07:00 +23°C° 0 mm 1 mps 753 mmHg 58%
    08:00 +25°C° 0 mm 2 mps 753 mmHg 53%
    09:00 +26°C° 0 mm 2 mps 753 mmHg 48%
    10:00 +27°C° 0 mm 3 mps 753 mmHg 47%
    11:00 +27°C° 0 mm 4 mps 753 mmHg 46%
    12:00 +28°C° 0 mm 5 mps 753 mmHg 45%
    13:00 +28°C° 0 mm 5 mps 752 mmHg 47%
    14:00 +27°C° 0 mm 5 mps 752 mmHg 50%
    15:00 +26°C° 0 mm 5 mps 752 mmHg 52%
    16:00 +25°C° 0 mm 5 mps 753 mmHg 54%
    17:00 +25°C° 0 mm 5 mps 753 mmHg 57%
    18:00 +23°C° 0 mm 5 mps 753 mmHg 59%
    19:00 +21°C° 0.1 mm 5 mps 754 mmHg 62%
    20:00 +19°C° 0.1 mm 4 mps 754 mmHg 66%
    21:00 +18°C° 0.1 mm 4 mps 755 mmHg 69%
    22:00 +17°C° 0.1 mm 4 mps 755 mmHg 70%
    23:00 +16°C° 0.1 mm 3 mps 755 mmHg 71%

    30 May, Tuesday

    Time Temperature Precipitation Wind Pressure Humidity
    00:00 +16°C° 0.1 mm 2 mps 755 mmHg 72%
    01:00 +15°C° 0.1 mm 2 mps 755 mmHg 73%
    02:00 +15°C° 0.1 mm 2 mps 755 mmHg 74%
    03:00 +14°C° 0.1 mm 2 mps 755 mmHg 75%
    04:00 +15°C° 0 mm 2 mps 755 mmHg 73%
    05:00 +16°C° 0 mm 2 mps 755 mmHg 71%
    06:00 +16°C° 0 mm 2 mps 755 mmHg 69%
    07:00 +18°C° 0 mm 2 mps 755 mmHg 65%
    08:00 +19°C° 0 mm 3 mps 755 mmHg 61%
    09:00 +21°C° 0 mm 3 mps 754 mmHg 56%
    10:00 +22°C° 0 mm 3 mps 754 mmHg 53%
    11:00 +24°C° 0 mm 3 mps 753 mmHg 49%
    12:00 +25°C° 0 mm 2 mps 752 mmHg 46%
    13:00 +26°C° 0 mm 2 mps 752 mmHg 44%
    14:00 +27°C° 0 mm 2 mps 751 mmHg 43%
    15:00 +27°C° 0 mm 1 mps 751 mmHg 42%
    16:00 +27°C° 0 mm 1 mps 751 mmHg 43%
    17:00 +27°C° 0 mm 1 mps 751 mmHg 45%
    18:00 +26°C° 0 mm 1 mps 751 mmHg 47%
    19:00 +24°C° 0 mm 1 mps 751 mmHg 54%
    20:00 +22°C° 0 mm 1 mps 751 mmHg 60%
    21:00 +20°C° 0 mm 1 mps 751 mmHg 66%
    22:00 +19°C° 0 mm 1 mps 751 mmHg 68%
    23:00 +19°C° 0 mm 1 mps 751 mmHg 70%
    Show more